Boscobel, WI

12:23 PM CST on February 09, 2016 (GMT -0600)
Boscobel

Weather History for KOVS - November, 2013

Change the Weather History Date:

Friday, November 29, 2013

  Actual Average (KPDC) Record (KPDC)
Temperature  
Mean Temperature 19 °F -  
Max Temperature 33 °F 37 °F 60 °F (1962)
Min Temperature 5 °F 20 °F -10 °F (1976)
Degree Days  
Heating Degree Days 46    
Moisture  
Dew Point 12 °F    
Average Humidity 69    
Maximum Humidity 88    
Minimum Humidity 48    
Precipitation  
Precipitation 0.00 in - - ()
Sea Level Pressure  
Sea Level Pressure 30.52 in    
Wind  
Wind Speed 2 mph (SSW)    
Max Wind Speed 12 mph    
Max Gust Speed -    
Visibility 8 miles    
Events      
Averages and records for this station are not official NWS values.
T = Trace of Precipitation, MM = Missing Value Source: NWS Daily Summary

Daily Weather History Graph

Daily Weather History Graph

Search for Another Location

Airport or City:

Trip Planner

Search our weather history database for the weather conditions in past years. The results will help you decide how hot, cold, wet, or windy it might be!

Date:

Astronomy

Nov. 29, 2013 Rise Set
Actual Time 7:12 AM CST 4:29 PM CST
Civil Twilight 6:41 AM CST 5:00 PM CST
Nautical Twilight 6:05 AM CST 5:36 PM CST
Astronomical Twilight 5:31 AM CST 6:10 PM CST
Moon 3:13 AM CST (11/29) 2:18 PM CST (11/29)
Length of Visible Light 10h 19m
Length of Day
9h 16m
Waning Crescent, 14% of the Moon is Illuminated
Nov 29
Waning Crescent
Dec 2
New
Dec 9
First Quarter
Dec 17
Full
Dec 25
Last Quarter

Hourly Weather History & Observations

Time (CST) Temp. Windchill Dew Point Humidity Pressure Visibility Wind Dir Wind Speed Gust Speed Precip Events Conditions
12:53 AM 12.0 °F - 8.1 °F 84% 30.56 in 7.0 mi Calm Calm - N/A   Clear
1:53 AM 9.0 °F - 5.0 °F 84% 30.57 in 6.0 mi Calm Calm - N/A   Clear
2:53 AM 9.0 °F - 5.0 °F 84% 30.59 in 8.0 mi Calm Calm - N/A   Clear
3:07 AM 9.0 °F - 3.9 °F 80% 30.55 in 2.0 mi Calm Calm - N/A   Haze
3:16 AM 8.1 °F - 3.9 °F 83% 30.55 in 4.0 mi Calm Calm - N/A   Clear
3:53 AM 8.1 °F - 3.9 °F 83% 30.59 in 3.0 mi Calm Calm - N/A   Clear
4:53 AM 7.0 °F - 3.0 °F 84% 30.61 in 8.0 mi Calm Calm - N/A   Clear
5:53 AM 5.0 °F - 1.0 °F 84% 30.62 in 8.0 mi Calm Calm - N/A   Clear
6:53 AM 5.0 °F - 1.0 °F 84% 30.63 in 9.0 mi Calm Calm - N/A   Clear
7:53 AM 12.9 °F - 10.0 °F 88% 30.64 in 6.0 mi Calm Calm - N/A   Clear
8:53 AM 17.1 °F 11.7 °F 12.9 °F 84% 30.64 in 8.0 mi NE 3.5 mph - N/A   Clear
9:53 AM 24.1 °F - 18.0 °F 77% 30.63 in 10.0 mi Calm Calm - N/A   Clear
10:53 AM 30.0 °F 20.5 °F 14.0 °F 51% 30.61 in 10.0 mi South 11.5 mph - N/A   Clear
11:53 AM 32.0 °F 24.8 °F 14.0 °F 48% 30.58 in 10.0 mi South 8.1 mph - N/A   Clear
12:53 PM 33.1 °F 26.9 °F 16.0 °F 50% 30.56 in 10.0 mi SSW 6.9 mph - N/A   Clear
1:53 PM 33.1 °F 26.1 °F 16.0 °F 50% 30.53 in 10.0 mi SSW 8.1 mph - 0.00 in   Clear
2:53 PM 32.0 °F 28.7 °F 17.1 °F 54% 30.50 in 10.0 mi Variable 3.5 mph - N/A   Clear
3:53 PM 30.9 °F - 18.0 °F 59% 30.49 in 10.0 mi Calm Calm - N/A   Clear
4:53 PM 30.0 °F 25.2 °F 17.1 °F 59% 30.46 in 9.0 mi Variable 4.6 mph - N/A   Clear
5:53 PM 30.0 °F 25.2 °F 17.1 °F 59% 30.45 in 10.0 mi Variable 4.6 mph - N/A   Clear
6:53 PM 30.0 °F - 18.0 °F 61% 30.43 in 10.0 mi Calm Calm - N/A   Clear
7:53 PM 30.9 °F 27.5 °F 18.0 °F 59% 30.40 in 10.0 mi Variable 3.5 mph - N/A   Clear
8:53 PM 30.9 °F 25.2 °F 18.0 °F 59% 30.39 in 10.0 mi Variable 5.8 mph - N/A   Clear
9:53 PM 30.9 °F 25.2 °F 18.0 °F 59% 30.37 in 10.0 mi Variable 5.8 mph - N/A   Clear
10:53 PM 30.9 °F 25.2 °F 19.0 °F 61% 30.35 in 10.0 mi SSW 5.8 mph - N/A   Clear
11:53 PM 30.9 °F 24.3 °F 19.0 °F 61% 30.32 in 10.0 mi SSW 6.9 mph - N/A   Clear